Page, AZ

2:10 PM MDT on May 24, 2017 (GMT -0600)
Page Municipal

Weather History for KPGA - June, 2014

Change the Weather History Date:

Saturday, June 7, 2014

  Actual Average Record
Temperature  
Mean Temperature 82 °F -  
Max Temperature 98 °F 87 °F 103 °F (1985)
Min Temperature 66 °F 61 °F 44 °F (1993)
Cooling Degree Days 17    
Growing Degree Days 32 (Base 50)    
Moisture  
Dew Point 22 °F    
Average Humidity 10    
Maximum Humidity 18    
Minimum Humidity 4    
Precipitation  
Precipitation 0.00 in - - ()
Sea Level Pressure  
Sea Level Pressure 29.65 in    
Wind  
Wind Speed 4 mph (North)    
Max Wind Speed 17 mph    
Max Gust Speed 29 mph    
Visibility 10 miles    
Events      
Averages and records for this station are not official NWS values.
T = Trace of Precipitation, MM = Missing Value Source: NWS Daily Summary

Daily Weather History Graph

Daily Weather History Graph

Search for Another Location

Airport or City:

Trip Planner

Search our weather history database for the weather conditions in past years. The results will help you decide how hot, cold, wet, or windy it might be!

Date:

Astronomy

Jun. 07, 2014 Rise Set
Actual Time 5:06 AM MST 7:43 PM MST
Civil Twilight 4:35 AM MST 8:13 PM MST
Nautical Twilight 3:57 AM MST 8:51 PM MST
Astronomical Twilight 3:15 AM MST 9:34 PM MST
Moon 2:12 PM MST (6/7) 1:21 AM MST (6/7)
Length of Visible Light 15h 38m
Length of Day
14h 37m
Waxing Gibbous, 69% of the Moon is Illuminated
Jun 7
Waxing Gibbous
Jun 12
Full
Jun 19
Last Quarter
Jun 27
New
Jul 5
First Quarter

Hourly Weather History & Observations

Time (MST) Temp. Dew Point Humidity Pressure Visibility Wind Dir Wind Speed Gust Speed Precip Events Conditions
12:53 AM 75.0 °F 24.1 °F 15% 29.63 in 10.0 mi West 3.5 mph - N/A   Clear
1:53 AM 72.0 °F 23.0 °F 16% 29.63 in 10.0 mi Calm Calm - N/A   Clear
2:53 AM 70.0 °F 24.1 °F 18% 29.64 in 10.0 mi Calm Calm - N/A   Clear
3:53 AM 71.1 °F 21.9 °F 16% 29.65 in 10.0 mi Calm Calm - N/A   Clear
4:53 AM 69.8 °F 21.2 °F 16% 29.86 in 10.0 mi Calm Calm - N/A   Clear
5:53 AM 70.0 °F 23.0 °F 17% 29.66 in 10.0 mi SSW 3.5 mph - N/A   Clear
6:53 AM 77.0 °F 21.9 °F 13% 29.67 in 10.0 mi NNE 3.5 mph - N/A   Clear
7:53 AM 78.8 °F 19.4 °F 11% 29.91 in 10.0 mi Calm Calm - N/A   Clear
8:53 AM 81.0 °F 24.1 °F 12% 29.70 in 10.0 mi North 4.6 mph - N/A   Clear
9:53 AM 84.9 °F 23.0 °F 10% 29.68 in 10.0 mi North 5.8 mph - N/A   Clear
10:53 AM 89.1 °F 23.0 °F 9% 29.66 in 10.0 mi NE 3.5 mph - N/A   Clear
11:53 AM 91.0 °F 21.9 °F 8% 29.65 in 10.0 mi NNE 9.2 mph - N/A   Clear
12:53 PM 93.9 °F 19.9 °F 7% 29.61 in 10.0 mi NNE 9.2 mph - N/A   Clear
1:53 PM 93.9 °F 19.0 °F 7% 29.60 in 10.0 mi Variable 3.5 mph - N/A   Clear
2:53 PM 97.0 °F 17.1 °F 5% 29.57 in 10.0 mi North 8.1 mph - N/A   Clear
3:53 PM 96.1 °F 15.1 °F 5% 29.55 in 10.0 mi North 4.6 mph - N/A   Clear
4:53 PM 91.9 °F 21.9 °F 8% 29.57 in 10.0 mi NW 17.3 mph 28.8 mph N/A   Clear
5:51 PM 91.4 °F 21.2 °F 8% 29.80 in 10.0 mi South 15.0 mph 26.5 mph N/A   Scattered Clouds
5:53 PM 91.0 °F 21.9 °F 8% 29.59 in 10.0 mi SSW 9.2 mph 21.9 mph N/A   Scattered Clouds
6:53 PM 91.0 °F 19.9 °F 7% 29.58 in 10.0 mi NNE 6.9 mph - N/A   Clear
7:53 PM 87.1 °F 25.0 °F 10% 29.59 in 10.0 mi NE 6.9 mph - N/A   Clear
8:53 PM 86.0 °F 27.0 °F 12% 29.60 in 10.0 mi North 5.8 mph - N/A   Clear
9:53 PM 81.0 °F 27.0 °F 14% 29.62 in 10.0 mi Calm Calm - N/A   Clear
10:53 PM 79.0 °F 27.0 °F 15% 29.62 in 10.0 mi SW 5.8 mph - N/A   Clear
11:53 PM 79.0 °F 24.1 °F 13% 29.62 in 10.0 mi SW 4.6 mph - N/A   Clear